Tracking 19827 objects as of 22-Aug-2019
HD Live streaming from Space Station
objects crossing your sky now

COSMOS 1637

Track COSMOS 1637 now!
10-day predictions
COSMOS 1637 is classified as:


NORAD ID: 15619
Int'l Code: 1985-023C
Perigee: 1,471.9 km
Apogee: 1,494.8 km
Inclination: 74.1 °
Period: 115.5 minutes
Semi major axis: 7854 km
RCS: 0.7025 m2 (medium)
Launch date: March 21, 1985
Source: Commonwealth of Independent States (former USSR) (CIS)
Launch site: PLESETSK MISSILE AND SPACE COMPLEX (PKMTR)
aabbcc
Your satellite tracking list
Your tracking list is empty




NASA's NSSDC Master Catalog

Two Line Element Set (TLE):
1 15619U 85023C   19232.92985038 +.00000004 +00000-0 +13556-3 0  9998
2 15619 074.0560 159.0835 0014538 064.2091 000.2089 12.47202374567043
Source of the keplerian elements: AFSPC